EDT,Max TemperatureF,Mean TemperatureF,Min TemperatureF,Max Dew PointF,MeanDew PointF,Min DewpointF,Max Humidity, Mean Humidity, Min Humidity, Max Sea Level PressureIn, Mean Sea Level PressureIn, Min Sea Level PressureIn, Max VisibilityMiles, Mean VisibilityMiles, Min VisibilityMiles, Max Wind SpeedMPH, Mean Wind SpeedMPH, Max Gust SpeedMPH,PrecipitationIn, CloudCover, Events, WindDirDegrees
2012-9-1,84,76,69,72,69,66,100,78,58,30.17,30.13,30.07,10,10,5,9,4,18,0.30,3,Thunderstorm,247
2012-9-2,80,73,66,72,68,66,100,90,61,30.10,30.05,29.99,10,7,0,7,2,,0.01,4,,151
2012-9-3,84,74,64,72,69,63,100,85,62,30.04,29.99,29.96,10,8,0,9,2,,0.00,2,Thunderstorm,144
2012-9-4,84,76,68,72,70,68,100,86,62,30.01,29.93,29.86,10,9,2,9,2,,0.00,6,Thunderstorm,209
2012-9-5,84,75,66,70,66,63,100,79,48,29.94,29.90,29.87,10,8,2,7,2,,0.00,4,,293
2012-9-6,89,76,64,68,64,57,100,74,35,29.96,29.93,29.89,10,8,0,10,2,16,0.00,1,,242
2012-9-7,84,72,60,70,66,61,100,84,51,30.00,29.93,29.79,10,6,0,9,2,,0.02,4,Thunderstorm,214
2012-9-8,73,63,53,64,59,52,100,85,68,29.91,29.77,29.65,10,10,6,13,6,28,0.53,5,Thunderstorm,229
2012-9-9,69,60,50,55,51,46,100,75,43,30.07,29.97,29.89,10,10,2,12,4,22,0.00,4,,260
2012-9-10,69,56,42,50,46,41,100,75,40,30.24,30.17,30.08,10,8,0,12,2,17,0.00,2,,340
2012-9-11,75,58,41,54,46,39,100,73,36,30.34,30.28,30.24,10,7,0,8,1,,0.00,0,,159
2012-9-12,80,61,42,57,49,41,100,73,32,30.36,30.31,30.28,10,8,0,7,1,,0.00,0,,185
2012-9-13,82,65,48,61,55,48,100,73,37,30.37,30.31,30.26,10,8,0,7,1,,0.00,1,,179
2012-9-14,82,68,53,59,56,52,100,76,39,30.29,30.24,30.16,10,8,0,18,3,22,0.00,3,,277
2012-9-15,71,58,46,54,49,45,100,80,38,30.34,30.27,30.19,10,7,0,9,1,,0.00,5,,298
2012-9-16,71,56,42,52,43,36,100,71,28,30.22,30.17,30.10,10,8,0,8,1,,0.00,0,,88
2012-9-17,78,58,39,61,47,37,100,72,32,30.11,30.02,29.90,10,9,2,9,1,,0.00,2,,168
2012-9-18,69,60,50,64,59,48,100,92,72,29.95,29.73,29.61,10,8,2,14,3,22,0.00,7,,240
2012-9-19,62,50,39,48,40,36,93,70,37,30.19,30.12,29.95,10,10,8,8,4,,0.00,1,,270
2012-9-20,73,54,35,52,44,34,100,69,31,30.16,30.06,29.99,10,9,1,10,2,16,0.00,1,,192
2012-9-21,75,66,57,55,53,46,94,69,41,30.03,29.97,29.81,10,10,10,13,4,23,0.00,4,,213
2012-9-22,69,60,48,59,50,39,94,65,37,30.11,29.88,29.76,10,10,5,16,9,29,0.00,5,,240
2012-9-23,60,48,35,45,40,34,100,74,42,30.20,30.16,30.10,10,10,8,12,4,16,0.00,4,,257
2012-9-24,60,48,35,45,38,34,100,71,36,30.28,30.19,30.11,10,8,0,15,3,21,0.00,2,,240
2012-9-25,66,52,37,54,43,36,100,72,46,30.15,30.10,30.03,10,10,10,12,3,20,0.00,4,,198
2012-9-26,66,62,57,61,58,54,100,89,77,30.13,30.09,30.04,10,10,5,10,6,20,0.01,7,Thunderstorm,212
2012-9-27,66,62,59,63,61,57,100,95,88,30.21,30.15,30.09,10,5,0,10,2,22,0.78,8,,210
2012-9-28,62,53,44,57,50,43,100,84,59,30.17,30.12,30.08,10,7,0,9,3,,0.02,4,,318
2012-9-29,64,50,37,50,43,36,100,80,48,30.11,30.04,29.96,10,7,0,15,1,23,0.08,6,Thunderstorm,300
2012-9-30,59,50,42,52,46,41,100,89,67,29.95,29.91,29.88,10,7,0,13,1,,0.15,5,Thunderstorm,79